Inquirer Daily News

Weather

Get conditions and forecasts for any City, State, ZIP code or Country:  
Trenton, NJ
on Wednesday, February 13, 2013

Wednesday
Previous Day Next Day
Daily Summary
 ActualAverageRecord
Temperature
Mean Temperature °F 34°F  
Max Temperature 43°F 42°F 65°F (1880)
Min Temperature 25°F 26°F -1°F (1914)
Degree Days
Heating Degree Days 31 31  
Month to date heating degree days 453 421  
Since 1 July heating degree days 3161 3367  
Cooling Degree Days 0 0  
Month to date cooling degree days 0 0  
Year to date cooling degree days 0 0  
Moisture
Dew Point 27°F   
Average Humidity 70    
Maximum Humidity 89    
Minimum Humidity 51    
Precipitation
Precipitation 0.08 in 0.08 in 2.45 in (1966)
Month to date precipitation 0.85 0.99  
Year to date precipitation 3.67 4.15  
Wind
Wind Speed 4 mph   
Max Wind Speed 10 mph   
Max Gust Speed 18 mph   
Visibility 6 miles   
Events Rain , Snow   

Key: T is trace of precipitation, MM is missing value
Source: NWS Daily Summary
Time(EST)TemperatureDew PointHumidity Pressure Visibility Wind DirectionWind SpeedGust SpeedPrecipitationEvents Conditions
12:53 AM 32.0°F 23.0°F 69% 29.94 in 10.0 miles West 3.5 mph - N/A   Clear
1:53 AM 30.0°F 21.9°F 72% 29.96 in 10.0 miles Calm Calm - N/A   Clear
2:53 AM 28.0°F 21.9°F 78% 29.93 in 10.0 miles North 4.6 mph - N/A   Clear
3:53 AM 27.0°F 21.0°F 78% 29.90 in 10.0 miles North 3.5 mph - N/A   Clear
4:53 AM 28.9°F 21.0°F 72% 29.91 in 10.0 miles North 5.8 mph - N/A   Clear
5:53 AM 25.0°F 21.0°F 85% 29.89 in 9.0 miles Calm Calm - N/A   Clear
6:53 AM 27.0°F 21.0°F 78% 29.89 in 10.0 miles Calm Calm - N/A   Clear
7:53 AM 28.9°F 23.0°F 78% 29.89 in 8.0 miles Calm Calm - N/A   Clear
8:53 AM 33.1°F 25.0°F 72% 29.88 in 9.0 miles Calm Calm - N/A   Clear
9:53 AM 37.0°F 24.1°F 59% 29.88 in 10.0 miles SE 4.6 mph - N/A   Clear
10:53 AM 37.9°F 24.1°F 57% 29.89 in 10.0 miles Variable 5.8 mph - N/A   Overcast
11:53 AM 39.9°F 24.1°F 53% 29.84 in 10.0 miles Variable 4.6 mph - N/A   Overcast
12:53 PM 43.0°F 27.0°F 53% 29.78 in 10.0 miles ESE 5.8 mph - N/A   Unknown
1:53 PM 42.1°F 26.1°F 53% 29.75 in 10.0 miles ESE 4.6 mph - N/A   Unknown
2:53 PM 42.1°F 26.1°F 53% 29.75 in 10.0 miles SSE 3.5 mph - N/A   Clear
3:53 PM 43.0°F 27.0°F 53% 29.71 in 10.0 miles ENE 10.4 mph - N/A   Clear
4:53 PM 41.0°F 25.0°F 53% 29.68 in 10.0 miles NE 6.9 mph - N/A   Overcast
5:53 PM 39.9°F 26.1°F 58% 29.68 in 10.0 miles East 8.1 mph - N/A   Overcast
6:53 PM 37.9°F 28.9°F 70% 29.69 in 9.0 miles ESE 5.8 mph - 0.00 in Rain Light Rain
7:26 PM 37.4°F 30.2°F 75% 29.71 in 7.0 miles Calm Calm - 0.00 in Rain Light Rain
7:53 PM 36.0°F 30.9°F 82% 29.69 in 5.0 miles Calm Calm - 0.01 in Snow Light Snow
8:26 PM 33.8°F 30.2°F 87% 29.72 in 2.5 miles Calm Calm - 0.01 in Snow Light Snow
8:33 PM 33.8°F 32.0°F 93% 29.71 in 1.2 miles Calm Calm - 0.02 in Snow Light Snow
8:46 PM 33.8°F 30.2°F 87% 29.70 in 0.8 miles Calm Calm - 0.02 in Snow Light Snow
8:53 PM 33.1°F 30.9°F 92% 29.69 in 1.0 miles Calm Calm - 0.02 in Snow Light Snow
9:01 PM 33.8°F 30.2°F 87% 29.71 in 0.8 miles North 3.5 mph - 0.00 in Snow Light Snow
9:08 PM 33.8°F 30.2°F 87% 29.70 in 0.8 miles North 3.5 mph - 0.00 in Snow Light Snow
9:44 PM 33.8°F 30.2°F 87% 29.70 in 1.0 miles NNE 5.8 mph - 0.01 in Snow Light Snow
9:53 PM 33.1°F 30.9°F 92% 29.69 in 1.0 miles North 5.8 mph - 0.01 in Snow Light Snow
10:22 PM 33.8°F 30.2°F 87% 29.70 in 1.0 miles North 4.6 mph - 0.00 in Snow Light Snow
10:33 PM 33.8°F 30.2°F 87% 29.70 in 1.5 miles North 5.8 mph - 0.01 in Snow Light Snow
10:53 PM 33.1°F 30.9°F 92% 29.69 in 1.5 miles North 5.8 mph - 0.01 in Snow Light Snow
11:08 PM 33.8°F 30.2°F 87% 29.70 in 2.0 miles North 5.8 mph - 0.01 in Snow Light Snow
11:21 PM 33.8°F 30.2°F 87% 29.71 in 3.0 miles North 5.8 mph - 0.01 in Snow Light Snow
11:33 PM 33.8°F 30.2°F 87% 29.71 in 2.0 miles North 5.8 mph - 0.02 in Snow Light Snow
11:53 PM 33.1°F 30.9°F 92% 29.70 in 2.5 miles North 4.6 mph - 0.02 in Snow Light Snow
Astronomy
Sunrise:06:54 AM (EST) Moon Rise:08:22 AM (EST)2/13
Sunset:05:32 PM (EST) Moon Set:09:33 PM (EST)2/13
Moon Phase
Feb. 13 Feb. 17 Feb. 25 Mar. 04 Mar. 11

Copyright © 2014 The Weather Underground, Inc.